Lubbock, TX

2:28 PM CST on November 18, 2019 (GMT -0600)
Lubbock International

Weather History for KLBB - September, 2019

Change the Weather History Date:

Monday, September 9, 2019

  Actual Average Record
Temperature  
Mean Temperature 76 °F 74 °F  
Max Temperature 84 °F 87 °F 99 °F (1984)
Min Temperature 68 °F 61 °F 47 °F (1956)
Degree Days  
Heating Degree Days 0 0  
Month to date heating degree days 0 0  
Since 1 July heating degree days 0 0  
Cooling Degree Days 11 9  
Month to date cooling degree days 132 92  
Year to date cooling degree days 1850 1618  
Growing Degree Days 26 (Base 50)    
Moisture  
Dew Point 65 °F    
Average Humidity 72    
Maximum Humidity 90    
Minimum Humidity 51    
Precipitation  
Precipitation 0.18 in 0.09 in 1.22 in (1949)
Month to date precipitation 0.26 0.77  
Year to date precipitation 15.85 13.84  
Snow  
Snow 0.00 in 0.00 in 0.00 in (2002)
Month to date snowfall 0.0 0.0  
Since 1 July snowfall 0.0 0.0  
Since 1 September snowfall 0.0 0.0  
Snow Depth 0.00 in    
Sea Level Pressure  
Sea Level Pressure 29.88 in    
Wind  
Wind Speed 13 mph ()    
Max Wind Speed 26 mph    
Max Gust Speed 34 mph    
Visibility 9.4 miles    
Events Rain , Thunderstorm    
T = Trace of Precipitation, MM = Missing Value Source: Averaged Metar Reports

Daily Weather History Graph

Daily Weather History Graph

Search for Another Location

Airport or City:

Astronomy

Sep. 09, 2019 Rise Set
Actual Time 7:26 AM CDT 8:02 PM CDT
Civil Twilight 7:01 AM CDT 8:27 PM CDT
Nautical Twilight 6:31 AM CDT 8:56 PM CDT
Astronomical Twilight 6:01 AM CDT 9:26 PM CDT
Moon 5:46 PM CDT (9/9) 3:13 AM CDT (9/9)
Length of Visible Light 13h 25m
Length of Day
12h 35m
Waxing Gibbous, 83% of the Moon is Illuminated
Sep 9
Waxing Gibbous
Sep 13
Full
Sep 21
Last Quarter
Sep 28
New
Oct 5
First Quarter

Hourly Weather History & Observations

Time (CDT) Temp. Heat Index Dew Point Humidity Pressure Visibility Wind Dir Wind Speed Gust Speed Precip Events Conditions
12:53 AM 70.0 °F - 62.1 °F 76% 29.79 in 10.0 mi South 19.6 mph 32.2 mph 0.00 in   Overcast
1:53 AM 72.0 °F - 60.1 °F 66% 29.78 in 10.0 mi South 20.7 mph - N/A   Overcast
2:53 AM 71.1 °F - 62.1 °F 73% 29.79 in 10.0 mi South 20.7 mph - N/A   Overcast
3:53 AM 72.0 °F - 63.0 °F 73% 29.81 in 10.0 mi South 15.0 mph - N/A   Overcast
4:53 AM 71.1 °F - 63.0 °F 75% 29.82 in 10.0 mi SSW 17.3 mph 25.3 mph N/A   Overcast
5:53 AM 69.1 °F - 64.9 °F 87% 29.85 in 10.0 mi South 13.8 mph - 0.01 in Rain Light Rain
6:47 AM 69.8 °F - 66.2 °F 88% 30.02 in 4.0 mi SE 5.8 mph - 0.07 in Rain , Thunderstorm Thunderstorms and Rain
6:53 AM 68.0 °F - 64.9 °F 90% 29.87 in 4.0 mi SE 8.1 mph - 0.12 in Rain , Thunderstorm Heavy Thunderstorms and Rain
7:05 AM 68.0 °F - 64.9 °F 90% 30.02 in 5.0 mi ESE 11.5 mph - 0.05 in Rain Light Rain
7:53 AM 69.1 °F - 66.0 °F 90% 29.88 in 9.0 mi ESE 9.2 mph - 0.05 in Rain Light Rain
8:53 AM 70.0 °F - 66.0 °F 87% 29.90 in 10.0 mi SSE 6.9 mph - 0.00 in   Overcast
9:53 AM 73.0 °F - 66.0 °F 79% 29.91 in 10.0 mi South 11.5 mph - N/A   Mostly Cloudy
10:53 AM 77.0 °F - 66.0 °F 69% 29.92 in 10.0 mi SSW 11.5 mph - N/A   Mostly Cloudy
11:53 AM 77.0 °F - 66.0 °F 69% 29.91 in 10.0 mi South 11.5 mph 20.7 mph N/A   Mostly Cloudy
12:05 PM 79.0 °F - 66.9 °F 66% 30.05 in 10.0 mi SSW 15.0 mph - N/A   Mostly Cloudy
12:09 PM 78.1 °F - 66.9 °F 68% 30.05 in 10.0 mi South 16.1 mph - N/A   Mostly Cloudy
12:53 PM 79.0 °F - 66.9 °F 66% 29.91 in 10.0 mi SSW 16.1 mph - N/A   Overcast
1:53 PM 79.0 °F - 66.0 °F 64% 29.88 in 10.0 mi South 18.4 mph - N/A   Mostly Cloudy
2:53 PM 79.0 °F - 66.0 °F 64% 29.87 in 10.0 mi SSW 12.7 mph - N/A   Mostly Cloudy
3:53 PM 80.1 °F 82.1 °F 66.0 °F 62% 29.85 in 10.0 mi SW 12.7 mph - N/A   Mostly Cloudy
4:53 PM 82.0 °F 84.1 °F 66.0 °F 58% 29.82 in 10.0 mi South 8.1 mph - N/A   Mostly Cloudy
5:53 PM 82.9 °F 84.0 °F 63.0 °F 51% 29.82 in 10.0 mi South 13.8 mph - N/A   Mostly Cloudy
6:53 PM 77.0 °F - 64.9 °F 66% 29.83 in 10.0 mi SE 17.3 mph - N/A   Mostly Cloudy
7:53 PM 77.0 °F - 64.0 °F 64% 29.85 in 10.0 mi SSE 13.8 mph - N/A   Mostly Cloudy
8:53 PM 75.0 °F - 64.9 °F 71% 29.86 in 10.0 mi SSE 11.5 mph - N/A   Mostly Cloudy
9:53 PM 75.0 °F - 64.0 °F 69% 29.87 in 10.0 mi South 15.0 mph - N/A   Mostly Cloudy
10:53 PM 73.9 °F - 64.0 °F 71% 29.86 in 10.0 mi South 16.1 mph - N/A   Mostly Cloudy
11:53 PM 73.0 °F - 63.0 °F 71% 29.87 in 10.0 mi SSW 16.1 mph 24.2 mph N/A   Mostly Cloudy